Flag for Liechtenstein Weather past 2 weeks in Vaduz, Liechtenstein

Now
63 °F

Mild.


Feels Like: 63 °F
Forecast: 48 / 65 °F
Wind: 5 mph from Southeast

Location: Vaduz

Current Time: Aug 31, 2014 at 4:51:40 AM

Latest Report: Aug 31, 2014 at 4:00 AM


Visibility: N/A

Pressure: 30.02 "Hg

Humidity: 81%

Dew point: 56 °F

Location of VaduzLocation

Historic Weather in Vaduz — Graph

°F

Vaduz temperature yesterday

Maximum temperature yesterday: 72 °F (at 3:00 PM)
Minimum temperature yesterday: 59 °F (at 11:00 PM)
Average temperature yesterday: 65 °F

Past Weeks' High & Low Weather Summary

 TemperatureHumidityPressure
High73 °F (Aug 28, 4:00 PM)98% (Aug 21, 7:00 AM)30.20 "Hg (Aug 21, 7:00 AM)
Low48 °F (Aug 25, 1:00 AM)46% (Aug 22, 4:00 PM)29.79 "Hg (Aug 26, 7:00 AM)
Average61 °F76%30.01 "Hg
* Reported Aug 16 5:00 AM — Aug 31 3:00 AM, Vaduz, Weather by CustomWeather, © 2014

Note: Actual official high and low records may vary slightly from our data, if they occured in-between our weather recording intervals... More about our weather records

Advertising

Vaduz weather history for previous 24 hours

 ConditionsComfort  
Time TempWeatherWind HumidityBarometerVisibility
3:00 AM
Aug 31
62 °FCool.5 mph84%30.04 "HgN/A
2:00 AM61 °FOvercast.5 mph86%30.05 "Hg9 mi
1:00 AM59 °FCool.1 mph95%30.07 "HgN/A
12:00 AM59 °FCool.1 mph95%30.07 "HgN/A
11:00 PM
Aug 30
59 °FOvercast.No wind95%30.08 "Hg9 mi
10:00 PM62 °FCool.1 mph94%30.08 "HgN/A
9:00 PM63 °FMild.No wind92%30.07 "HgN/A
8:00 PM67 °FOvercast.1 mph75%30.04 "Hg9 mi
7:00 PM65 °FMild.No wind88%30.03 "HgN/A
6:00 PM69 °FMild.5 mph69%30.02 "HgN/A
5:00 PM71 °FPartly sunny.7 mph66%30.02 "Hg9 mi
4:00 PM70 °FMild.6 mph69%30.03 "HgN/A
3:00 PM72 °FMild.7 mph64%30.04 "HgN/A
2:00 PM70 °FOvercast.3 mph71%30.07 "Hg9 mi
1:00 PM67 °FMild.2 mph78%30.09 "HgN/A
12:00 PM67 °FMild.2 mph82%30.11 "HgN/A
11:00 AM64 °FDrizzle. Low clouds.2 mph88%30.12 "Hg6 mi
10:00 AM64 °FMild.1 mph92%30.12 "HgN/A
9:00 AM63 °FMild.No wind95%30.11 "HgN/A
8:00 AM62 °FFog.No wind95%30.12 "Hg6 mi
7:00 AM61 °FCool.No wind98%30.11 "HgN/A
6:00 AM61 °FCool.No wind98%30.11 "HgN/A
5:00 AM62 °FFog.No wind98%30.11 "Hg5 mi
4:00 AM62 °FCool.No wind98%30.10 "HgN/A
Weather by CustomWeather, © 2014

See weather overviewHow to use our weather pages